Location: Limerick
(52.6800°N, 8.6400°W)
Time: 16:51:24
(UTC+01:00)

ISS - All Passes

Search period start: 30 September 2014 00:00
Search period end: 10 October 2014 00:00
Orbit: 413 x 416 km, 51.6° (Epoch: 30 September)

Date Brightness Start Highest point End Pass type
(mag) Time Alt. Az. Time Alt. Az. Time Alt. Az.
30 Sep - 00:18:29 10° SSW 00:21:11 23° SSE 00:23:53 10° E night (unlit)
30 Sep - 01:54:13 10° WSW 01:57:30 62° SSE 02:00:49 10° E night (unlit)
30 Sep - 03:30:48 10° W 03:34:07 71° S 03:37:27 10° ESE night (unlit)
30 Sep - 05:07:34 10° W 05:10:34 31° SSW 05:13:33 10° SE visible
30 Sep - 23:30:07 10° S 23:32:18 16° SE 23:34:29 10° ESE night (unlit)
01 Oct - 01:05:14 10° WSW 01:08:29 51° SSE 01:11:44 10° E night (unlit)
01 Oct - 02:41:44 10° W 02:45:04 76° S 02:48:24 10° E night (unlit)
01 Oct - 04:18:25 10° W 04:21:36 41° SSW 04:24:45 10° SE visible
01 Oct - 05:56:15 10° WSW 05:57:39 12° SW 05:59:02 10° SSW visible
01 Oct - 22:42:23 10° SSE 22:43:26 11° SE 22:44:30 10° ESE night (unlit)
02 Oct - 00:16:20 10° SW 00:19:28 39° SSE 00:22:36 10° E night (unlit)
02 Oct - 01:52:38 10° W 01:55:59 75° S 01:59:18 10° E night (unlit)
02 Oct - 03:29:18 10° W 03:32:34 53° SSW 03:35:49 10° ESE night (unlit)
02 Oct - 05:06:28 10° W 05:08:46 18° SW 05:11:04 10° S visible
02 Oct - 23:27:31 10° SW 23:30:27 29° SSE 23:33:24 10° E night (unlit)
03 Oct - 01:03:33 10° WSW 01:06:52 69° S 01:10:11 10° E night (unlit)
03 Oct - 02:40:10 10° W 02:43:29 64° S 02:46:47 10° ESE night (unlit)
03 Oct - 04:17:03 10° W 04:19:50 25° SSW 04:22:36 10° SSE night (unlit)
03 Oct - 22:38:52 10° SSW 22:41:28 21° SSE 22:44:04 10° E night (unlit)
04 Oct - 00:14:28 10° WSW 00:17:45 59° SSE 00:21:03 10° E night (unlit)
04 Oct - 01:51:02 10° W 01:54:21 72° S 01:57:41 10° ESE night (unlit)
04 Oct - 03:27:46 10° W 03:30:49 33° SSW 03:33:51 10° SE night (unlit)
04 Oct - 21:50:30 10° S 21:52:30 15° SE 21:54:30 10° ESE night (unlit)
04 Oct - 23:25:25 10° SW 23:28:38 48° SSE 23:31:52 10° E night (unlit)
05 Oct - 01:01:52 10° W 01:05:12 76° S 01:08:32 10° E night (unlit)
05 Oct - 02:38:32 10° W 02:41:44 44° SSW 02:44:56 10° SE night (unlit)
05 Oct - 04:16:08 10° WSW 04:17:50 13° SW 04:19:31 10° S night (unlit)
05 Oct - 21:03:24 10° SE 21:03:34 10° SE 21:03:44 10° SE visible
05 Oct - 22:36:26 10° SW 22:39:32 36° SSE 22:42:38 10° E night (unlit)
06 Oct - 00:12:41 10° W 00:16:01 74° S 00:19:21 10° E night (unlit)
06 Oct - 01:49:20 10° W 01:52:36 56° SSW 01:55:53 10° ESE night (unlit)
06 Oct - 03:26:24 10° W 03:28:51 19° SW 03:31:17 10° SSE night (unlit)
06 Oct - 21:47:34 10° SSW 21:50:26 27° SSE 21:53:19 10° E visible
06 Oct - 23:23:30 10° WSW 23:26:49 67° S 23:30:08 10° E night (unlit)
07 Oct - 01:00:07 10° W 01:03:26 67° S 01:06:44 10° ESE night (unlit)
07 Oct - 02:36:56 10° W 02:39:48 27° SSW 02:42:39 10° SSE night (unlit)
07 Oct - 20:58:53 10° SSW 21:01:22 20° SE 21:03:51 10° E visible
07 Oct - 22:34:20 10° WSW 22:37:37 56° SSE 22:40:54 10° E visible
08 Oct - 00:10:52 10° W 00:14:12 74° S 00:17:32 10° E night (unlit)
08 Oct - 01:47:35 10° W 01:50:41 36° SSW 01:53:46 10° SE night (unlit)
08 Oct - 20:10:34 10° S 20:12:19 14° SE 20:14:05 10° ESE visible
08 Oct - 21:45:13 10° SW 21:48:25 45° SSE 21:51:37 10° E visible
08 Oct - 23:21:37 10° W 23:24:57 76° S 23:28:17 10° E night (unlit)
09 Oct - 00:58:17 10° W 01:01:30 47° SSW 01:04:43 10° SE night (unlit)
09 Oct - 02:35:41 10° WSW 02:37:38 15° SW 02:39:34 10° S night (unlit)
09 Oct - 20:56:10 10° SW 20:59:13 34° SSE 21:02:17 10° E visible
09 Oct - 22:32:21 10° WSW 22:35:41 73° S 22:39:00 10° E visible
